Weather History for Hamilton, OH

Change the Weather History Date:

Friday, January 25, 2013

  Actual Average (KCVG) Record (KCVG)
Temperature  
Mean Temperature 23 °F 31 °F  
Max Temperature 27 °F 39 °F 74 °F (1950)
Min Temperature 19 °F 23 °F -10 °F (1963)
Degree Days  
Heating Degree Days 42 34  
Month to date heating degree days 850  
Since 1 July heating degree days 2769  
Cooling Degree Days 0 0  
Month to date cooling degree days 0  
Year to date cooling degree days 0  
Moisture  
Dew Point 15 °F    
Average Humidity 72    
Maximum Humidity 86    
Minimum Humidity 48    
Precipitation  
Precipitation 0.07 in 0.10 in 0.91 in (1933)
Month to date precipitation 2.42  
Year to date precipitation 2.42  
Snow  
Snow 0.00 in 0.20 in 5.80 in (2004)
Month to date snowfall 5.0  
Since 1 July snowfall 10.6  
Snow Depth -    
Sea Level Pressure  
Sea Level Pressure 30.17 in    
Wind  
Wind Speed 5 mph (SSE)    
Max Wind Speed 8 mph    
Max Gust Speed -    
Visibility 7 miles    
Events Fog , Snow    
T = Trace of Precipitation, MM = Missing Value Source: NWS Daily Summary

Daily Weather History Graph

Daily Weather History Graph

Search for Another Location

Airport:

Trip Planner

Search our weather history database for the weather conditions in past years. The results will help you decide how hot, cold, wet, or windy it might be!

Date:

Astronomy

Jan. 25, 2013 Rise Set
Actual Time 7:50 AM EST 5:50 PM EST
Civil Twilight 7:21 AM EST 6:19 PM EST
Nautical Twilight 6:49 AM EST 6:51 PM EST
Astronomical Twilight 6:17 AM EST 7:23 PM EST
Moon 4:47 PM EST (1/25) 6:29 AM EST (1/25)
Length of Visible Light 10h 57m
Length of Day
9h 59m
Waxing Gibbous, 98% of the Moon is Illuminated
Jan 25
Waxing Gibbous
Jan 26
Full
Feb 3
Last Quarter
Feb 10
New
Feb 17
First Quarter

Hourly Weather History & Observations

Time (EST) Temp. Windchill Dew Point Humidity Pressure Visibility Wind Dir Wind Speed Gust Speed Precip Events Conditions
12:53 AM 21.0 °F 13.4 °F 7.0 °F 55% 30.46 in 10.0 mi ESE 5.8 mph - N/A   Clear
1:53 AM 21.0 °F 12.4 °F 7.0 °F 55% 30.40 in 10.0 mi ESE 6.9 mph - N/A   Clear
2:53 AM 21.9 °F 15.7 °F 6.1 °F 51% 30.42 in 10.0 mi ESE 4.6 mph - N/A   Overcast
3:53 AM 21.9 °F 13.4 °F 5.0 °F 48% 30.36 in 10.0 mi ESE 6.9 mph - N/A   Overcast
4:53 AM 21.9 °F 17.2 °F 5.0 °F 48% 30.35 in 10.0 mi ESE 3.5 mph - N/A   Mostly Cloudy
5:53 AM 21.9 °F 12.5 °F 5.0 °F 48% 30.30 in 10.0 mi ESE 8.1 mph - N/A   Overcast
6:53 AM 21.9 °F 14.5 °F 5.0 °F 48% 30.25 in 10.0 mi Variable 5.8 mph - N/A   Overcast
7:53 AM 21.9 °F 15.7 °F 7.0 °F 53% 30.23 in 7.0 mi Variable 4.6 mph - 0.00 in Snow Light Snow
8:25 AM 21.2 °F 11.7 °F 12.2 °F 68% 30.20 in 2.5 mi East 8.1 mph - 0.00 in Snow Light Snow
8:30 AM 19.4 °F 12.8 °F 12.2 °F 74% 30.20 in 1.5 mi ESE 4.6 mph - 0.00 in Snow Light Snow
8:41 AM 19.4 °F 14.3 °F 14.0 °F 80% 30.20 in 0.8 mi ESE 3.5 mph - 0.00 in Snow Light Snow
8:53 AM 19.9 °F 12.1 °F 15.1 °F 81% 30.21 in 0.8 mi East 5.8 mph - 0.01 in Snow Light Snow
9:33 AM 19.4 °F 11.5 °F 15.8 °F 86% 30.15 in 0.5 mi ESE 5.8 mph - 0.02 in Fog , Snow Snow
9:53 AM 19.9 °F 11.1 °F 16.0 °F 85% 30.18 in 0.5 mi ESE 6.9 mph - 0.03 in Fog , Snow Snow
10:14 AM 19.4 °F 14.3 °F 15.8 °F 86% 30.15 in 0.8 mi East 3.5 mph - 0.01 in Snow Light Snow
10:21 AM 19.4 °F 12.8 °F 15.8 °F 86% 30.15 in 1.0 mi East 4.6 mph - 0.01 in Snow Light Snow
10:43 AM 21.2 °F 13.6 °F 15.8 °F 80% 30.15 in 2.0 mi East 5.8 mph - 0.01 in Snow Light Snow
10:53 AM 21.0 °F 16.2 °F 16.0 °F 81% 30.18 in 1.8 mi ENE 3.5 mph - 0.01 in Snow Light Snow
11:00 AM 21.2 °F 14.9 °F 15.8 °F 80% 30.15 in 1.2 mi ENE 4.6 mph - 0.01 in Snow Light Snow
11:21 AM 21.2 °F - 15.8 °F 80% 30.14 in 1.8 mi Calm Calm - 0.02 in Snow Light Snow
11:26 AM 21.2 °F - 15.8 °F 80% 30.15 in 3.0 mi Calm Calm - 0.02 in Snow Light Snow
11:40 AM 21.2 °F 16.4 °F 15.8 °F 80% 30.14 in 2.0 mi East 3.5 mph - 0.02 in Snow Light Snow
11:53 AM 21.0 °F - 16.0 °F 81% 30.17 in 1.8 mi Calm Calm - 0.02 in Snow Light Snow
11:59 AM 21.2 °F - 15.8 °F 80% 30.14 in 3.0 mi Calm Calm - 0.00 in Snow Light Snow
12:53 PM 21.9 °F 15.7 °F 16.0 °F 78% 30.13 in 10.0 mi SSE 4.6 mph - 0.00 in   Overcast
1:39 PM 24.8 °F 20.5 °F 17.6 °F 74% 30.08 in 10.0 mi WSW 3.5 mph - N/A   Overcast
1:53 PM 25.0 °F - 17.1 °F 72% 30.11 in 10.0 mi Calm Calm - N/A   Overcast
2:10 PM 24.8 °F 20.5 °F 17.6 °F 74% 30.08 in 10.0 mi SW 3.5 mph - N/A   Overcast
2:20 PM 26.6 °F 21.2 °F 17.6 °F 69% 30.07 in 10.0 mi West 4.6 mph - N/A   Overcast
2:29 PM 26.6 °F 20.0 °F 17.6 °F 69% 30.07 in 10.0 mi WSW 5.8 mph - N/A   Overcast
2:53 PM 26.1 °F 19.4 °F 18.0 °F 71% 30.09 in 10.0 mi West 5.8 mph - N/A   Overcast
3:53 PM 26.1 °F 20.5 °F 19.0 °F 75% 30.09 in 10.0 mi West 4.6 mph - N/A   Overcast
4:02 PM 26.6 °F 19.1 °F 17.6 °F 69% 30.06 in 10.0 mi WSW 6.9 mph - N/A   Overcast
4:53 PM 27.0 °F 21.6 °F 19.0 °F 72% 30.10 in 10.0 mi WSW 4.6 mph - N/A   Overcast
5:40 PM 26.6 °F 18.2 °F 19.4 °F 74% 30.08 in 10.0 mi WSW 8.1 mph - N/A   Overcast
5:53 PM 27.0 °F 20.5 °F 19.0 °F 72% 30.11 in 10.0 mi West 5.8 mph - N/A   Overcast
6:15 PM 26.6 °F 19.1 °F 17.6 °F 69% 30.09 in 10.0 mi West 6.9 mph - N/A   Overcast
6:53 PM 26.1 °F 18.4 °F 19.0 °F 75% 30.12 in 10.0 mi West 6.9 mph - N/A   Overcast
7:32 PM 26.6 °F 19.1 °F 19.4 °F 74% 30.10 in 10.0 mi WSW 6.9 mph - N/A   Overcast
7:53 PM 26.1 °F 20.5 °F 19.0 °F 75% 30.14 in 10.0 mi West 4.6 mph - N/A   Overcast
8:53 PM 27.0 °F 21.6 °F 19.0 °F 72% 30.16 in 10.0 mi SW 4.6 mph - N/A   Overcast
9:53 PM 27.0 °F - 19.9 °F 75% 30.17 in 9.0 mi Calm Calm - N/A   Overcast
10:18 PM 24.8 °F 20.5 °F 19.4 °F 80% 30.14 in 9.0 mi SSW 3.5 mph - N/A   Overcast
10:53 PM 27.0 °F - 19.9 °F 75% 30.17 in 10.0 mi Calm Calm - N/A   Overcast
11:53 PM 24.1 °F 18.2 °F 19.0 °F 81% 30.17 in 8.0 mi South 4.6 mph - N/A   Scattered Clouds